Starlink 33983

operational
NORAD ID: 63948 Int'l Des: 2025-098 Owner: SPXS Country: US Constellation: starlink
LEOCIRCULAR

About Starlink 33983

Description loading...

Live Position

Loading 3D Globe...

Upcoming Passes

Altitude History

Altitude vs Time

uPlot chart will show altitude changes over time

Two-Line Element Set

1 63948U 25098Y 25278.47609799 .00002031 00000-0 17796-3 0 9998
2 63948 70.0004 305.7716 0003213 270.9006 89.1785 14.98335642 23306
Epoch: Oct 5, 2025 • Age: 17 hours

Current Status

Altitude 574.3 km
Velocity 7.57 km/s
Sub-Earth Point 1.76°N, 44.67°E
Launch Date May 13, 2025
Age 0.3 years
Type internet

Technical Details

Classification Payload
Mass 575.00 kg
Dry Mass 530.00 kg
Total Mass 575.00 kg
Length 0.30 m
Diameter 4.10 m
Span 29.00 m
Shape Box + pan
Manufacturer SPXS
Bus Type Starlink V2MO
Phase Status In Orbit
Owner/State SPXS/US

Large Constellations

Loading constellations...